Location: Unspecified
(0.0000°N, 0.0000°E)
Time: 03:47:09
(UTC+00:00)

Vanguard 2 - Pass Details

Date: 16 December 2017
Orbit: 553 x 2939 km, 32.9° (Epoch: 25 April)

Event Time Altitude Azimuth Distance (km) Brightness Sun altitude
Rises 22:23:26 0° 307° (NW) 2,823 - -57.6°
Reaches altitude 10° 22:25:24 10° 307° (NW) 2,029 - -57.9°
Maximum altitude 22:29:56 83° 35° (NE) 813 - -58.7°
Drops below altitude 10° 22:36:58 10° 123° (ESE) 3,082 - -59.8°
Sets 22:40:35 0° 124° (SE) 4,438 - -60.3°
